[[{"header":{"parameterUnit":"m.s-1","parameterCategory":1,"la1":30.2992,"la2":30.254,"lo1":-89.0895,"lo2":-89.0443,"dy":0.0025,"dx":0.0025,"nx":19,"ny":19,"refTime":"2026-04-09T21:00:00:Z","depth":0,"parameterNumber":2,"parameterNumberName":"U-component_of_WINDS"},"data":[0,0,0,-3.5424,-3.5425,-3.5434,-3.5434,-3.5476,-3.5477,0,0,0,0,0,0,0,0,0,0,0,-3.5438,-3.5439,-3.5424,-3.5425,-3.5434,-3.5434,-3.5476,-3.5477,0,0,0,0,0,0,0,0,0,0,0,-3.5438,-3.5439,-3.544,-3.5425,-3.5434,-3.5434,-3.5476,-3.5458,0,0,0,0,0,0,0,0,0,0,-3.5444,-3.5474,-3.5439,-3.544,-3.5425,-3.5435,-3.5434,-3.5457,-3.546,-3.5484,0,-3.551,0,-3.5495,-3.5482,-3.5482,0,0,0,-3.5412,-3.5472,-3.5459,-3.544,-3.5425,-3.5435,-3.5427,-3.5458,-3.5461,-3.5488,-3.5511,-3.5511,-3.5495,-3.5482,-3.5482,-3.5666,-3.5667,0,0,-3.5412,-3.5449,-3.5457,-3.5462,-3.5461,-3.5426,-3.5427,-3.5459,-3.5487,-3.5511,-3.5512,-3.5496,-3.5483,-3.5483,-3.5664,-3.5666,0,0,0,-3.5419,-3.545,-3.5435,-3.5461,-3.546,-3.5427,-3.5428,-3.5485,-3.5478,-3.5512,-3.5496,-3.5483,-3.5484,-3.5662,-3.5665,-3.5771,0,0,0,-3.5418,-3.5454,-3.5436,-3.5459,-3.546,-3.5473,-3.5454,-3.5475,-3.5478,-3.5496,-3.5483,-3.5484,-3.5661,-3.5664,-3.5765,-3.5815,0,0,0,-3.5432,-3.5455,-3.5462,-3.5461,-3.5466,-3.5471,-3.5465,-3.5475,-3.5469,-3.5482,-3.5485,-3.566,-3.5663,-3.5759,-3.5806,-3.5874,0,0,0,-3.5458,-3.5557,-3.5465,-3.557,-3.5467,-3.5537,-3.5464,-3.5515,-3.5539,-3.5483,-3.5661,-3.5665,-3.5757,-3.58,-3.5868,-3.5937,-3.597,0,0,-3.5604,-3.5576,-3.5635,-3.5552,-3.5649,-3.5533,-3.5646,-3.5632,-3.56,-3.5646,-3.565,-3.5767,-3.5805,-3.5873,-3.6141,-3.6167,0,0,0,-3.5694,-3.5737,-3.5755,-3.5779,-3.5771,-3.5768,-3.5734,-3.5729,-3.5766,-3.5631,-3.5809,-3.5831,-3.5869,-3.59,-3.5923,-3.5953,-3.5681,-3.568,-3.568,-3.5955,-3.5907,-3.6002,-3.5956,-3.5981,-3.5944,-3.596,-3.5948,-3.5893,-3.5936,-3.5949,-3.6118,-3.6156,-3.6172,-3.6204,-3.5983,-3.5983,-3.5984,-3.5984,-3.6164,-3.6217,-3.6142,-3.6206,-3.6156,-3.621,-3.618,-3.614,-3.6183,-3.6104,-3.6135,-3.6051,-3.6202,-3.6228,-3.5991,-3.599,-3.5989,-3.5988,-3.5988,-3.6328,-3.6345,-3.6337,-3.6368,-3.6397,-3.6348,-3.6393,-3.6346,-3.6302,-3.6333,-3.6342,-3.634,-3.6331,-3.6341,-3.6342,-3.6342,-3.6343,-3.6343,-3.6343,-3.6501,-3.6489,-3.6532,-3.6533,-3.6542,-3.6549,-3.6515,-3.6523,-3.6521,-3.6483,-3.6483,-3.6425,-3.6226,-3.6176,-3.6352,-3.6351,-3.635,-3.6349,-3.6348,-3.6728,-3.6669,-3.6736,-3.6746,-3.6743,-3.6775,-3.6716,-3.6737,-3.6738,-3.6762,-3.6697,-3.6558,-3.6526,-3.6508,-3.6467,-3.6707,-3.6707,-3.6707,-3.6707,-3.6866,-3.6846,-3.6903,-3.6922,-3.6935,-3.6888,-3.6966,-3.6941,-3.6906,-3.6904,-3.6863,-3.6804,-3.6788,-3.6766,-3.6742,-3.6703,-3.6998,-3.6998,-3.6998,-3.7003,-3.6982,-3.7056,-3.7021,-3.7015,-3.7012,-3.7084,-3.711,-3.7058,-3.7009,-3.6901,-3.6889,-3.6794,-3.6766,-3.6713,-3.6677,-3.6604,0,0]},{"header":{"parameterUnit":"m.s-1","parameterCategory":1,"la1":30.2992,"la2":30.254,"lo1":-89.0895,"lo2":-89.0443,"dy":0.0025,"dx":0.0025,"nx":19,"ny":19,"refTime":"2026-04-09T21:00:00:Z","depth":0,"parameterNumber":3,"parameterNumberName":"V-component_of_WINDS"},"data":[0,0,0,2.2419,2.242,2.2483,2.2483,2.2547,2.2548,0,0,0,0,0,0,0,0,0,0,0,2.2392,2.2392,2.2418,2.242,2.2483,2.2483,2.2547,2.2548,0,0,0,0,0,0,0,0,0,0,0,2.2392,2.2392,2.2392,2.242,2.2482,2.2483,2.2547,2.2505,0,0,0,0,0,0,0,0,0,0,2.2447,2.2414,2.2392,2.2392,2.242,2.2482,2.2483,2.2503,2.2508,2.2513,0,2.2516,0,2.2533,2.2551,2.2551,0,0,0,2.2425,2.2411,2.2435,2.2392,2.2421,2.2482,2.2456,2.2506,2.2511,2.2518,2.2518,2.252,2.2534,2.2552,2.2552,2.2567,2.2567,0,0,2.2422,2.2398,2.2432,2.2438,2.2429,2.2454,2.2458,2.2509,2.2506,2.2518,2.2522,2.2535,2.2552,2.2552,2.2567,2.2567,0,0,0,2.2408,2.2395,2.2419,2.2435,2.2448,2.2455,2.246,2.2503,2.2513,2.2523,2.2536,2.2552,2.2553,2.2568,2.2567,2.2536,0,0,0,2.2406,2.2388,2.2417,2.2404,2.2446,2.2477,2.2453,2.251,2.2516,2.2536,2.2552,2.2553,2.2568,2.2567,2.2537,2.2524,0,0,0,2.239,2.2386,2.2393,2.2402,2.2429,2.2476,2.2489,2.2512,2.2524,2.2552,2.2554,2.2568,2.2567,2.2538,2.2526,2.2521,0,0,0,2.2366,2.2362,2.2392,2.2393,2.2428,2.2457,2.2489,2.2512,2.2532,2.2553,2.2568,2.2567,2.2539,2.2528,2.2523,2.2513,2.2507,0,0,2.2348,2.2359,2.2362,2.239,2.2408,2.245,2.2463,2.2502,2.2525,2.2551,2.2552,2.2537,2.2526,2.2522,2.2482,2.2477,0,0,0,2.2348,2.235,2.236,2.2379,2.241,2.2436,2.2476,2.2491,2.2515,2.2535,2.2535,2.2529,2.2527,2.2524,2.252,2.2519,2.2565,2.2565,2.2565,2.2287,2.2319,2.2326,2.2365,2.2383,2.2426,2.2443,2.247,2.2495,2.2495,2.2502,2.2475,2.247,2.2467,2.2466,2.25,2.25,2.25,2.25,2.2263,2.227,2.2307,2.2326,2.2359,2.2375,2.2416,2.2434,2.2452,2.2471,2.2471,2.2489,2.246,2.2461,2.2498,2.2498,2.2499,2.2499,2.2499,2.2226,2.2235,2.2255,2.2287,2.2307,2.2347,2.2364,2.2394,2.2421,2.2422,2.2433,2.2433,2.2437,2.2425,2.2425,2.2425,2.2425,2.2425,2.2425,2.218,2.2203,2.2215,2.225,2.2266,2.2292,2.2336,2.2352,2.2378,2.2398,2.2398,2.2423,2.2452,2.2458,2.2423,2.2424,2.2424,2.2424,2.2424,2.2142,2.2156,2.2174,2.219,2.2234,2.2252,2.2291,2.2322,2.234,2.2348,2.2374,2.2391,2.2404,2.2407,2.2412,2.2367,2.2367,2.2367,2.2367,2.211,2.212,2.2146,2.2171,2.2199,2.2236,2.2254,2.2289,2.2326,2.2339,2.235,2.236,2.2362,2.2373,2.2378,2.2383,2.2332,2.2332,2.2332,2.2088,2.2103,2.2113,2.2152,2.2189,2.2219,2.2237,2.2263,2.2308,2.2331,2.2349,2.2351,2.2367,2.2371,2.2392,2.2398,2.2409,0,0]}]]